EN

Hourly Weather Trzcinna

Today, 13 April, Tuesday

Time Temperature Precipitation Wind Pressure Humidity
00:00 +3°C° 0 mm 2 mps 762 mmHg 74%
01:00 +2°C° 0 mm 2 mps 762 mmHg 76%
02:00 +2°C° 0 mm 2 mps 762 mmHg 79%
03:00 +1°C° 0 mm 2 mps 763 mmHg 82%
04:00 -1°C° 0 mm 2 mps 763 mmHg 85%
05:00 +1°C° 0 mm 2 mps 763 mmHg 82%
06:00 0°C° 0 mm 3 mps 763 mmHg 78%
07:00 +1°C° 0 mm 3 mps 764 mmHg 75%
08:00 +3°C° 0 mm 4 mps 764 mmHg 68%
09:00 +4°C° 0 mm 4 mps 763 mmHg 60%
10:00 +6°C° 0 mm 5 mps 763 mmHg 53%
11:00 +6°C° 0 mm 5 mps 763 mmHg 49%
12:00 +7°C° 0 mm 5 mps 763 mmHg 46%
13:00 +8°C° 0 mm 5 mps 763 mmHg 42%
14:00 +8°C° 0 mm 5 mps 763 mmHg 42%
15:00 +8°C° 0 mm 5 mps 762 mmHg 42%
16:00 +8°C° 0 mm 5 mps 762 mmHg 42%
17:00 +7°C° 0.1 mm 4 mps 762 mmHg 50%
18:00 +5°C° 0.1 mm 3 mps 763 mmHg 57%
19:00 +4°C° 0.1 mm 3 mps 763 mmHg 64%
20:00 +3°C° 0 mm 3 mps 763 mmHg 68%
21:00 +2°C° 0 mm 3 mps 763 mmHg 71%
22:00 +2°C° 0 mm 3 mps 763 mmHg 74%
23:00 +1°C° 0 mm 3 mps 763 mmHg 76%

Tomorrow, 14 April, Wednesday

Time Temperature Precipitation Wind Pressure Humidity
00:00 0°C° 0 mm 4 mps 763 mmHg 77%
01:00 -1°C° 0 mm 4 mps 763 mmHg 79%
02:00 -2°C° 0 mm 4 mps 763 mmHg 83%
03:00 -1°C° 0 mm 3 mps 763 mmHg 87%
04:00 -2°C° 0 mm 3 mps 763 mmHg 91%
05:00 -2°C° 0 mm 4 mps 763 mmHg 88%
06:00 -1°C° 0 mm 4 mps 763 mmHg 85%
07:00 -1°C° 0 mm 4 mps 763 mmHg 81%
08:00 +1°C° 0 mm 4 mps 763 mmHg 72%
09:00 +4°C° 0 mm 4 mps 763 mmHg 63%
10:00 +5°C° 0 mm 5 mps 763 mmHg 54%
11:00 +6°C° 0 mm 5 mps 763 mmHg 53%
12:00 +6°C° 0 mm 4 mps 762 mmHg 52%
13:00 +6°C° 0 mm 4 mps 762 mmHg 51%
14:00 +6°C° 0 mm 4 mps 762 mmHg 51%
15:00 +6°C° 0 mm 4 mps 762 mmHg 51%
16:00 +6°C° 0 mm 4 mps 762 mmHg 51%
17:00 +5°C° 0 mm 4 mps 762 mmHg 58%
18:00 +4°C° 0 mm 3 mps 762 mmHg 65%
19:00 +3°C° 0 mm 3 mps 762 mmHg 71%
20:00 +2°C° 0 mm 3 mps 763 mmHg 75%
21:00 +2°C° 0 mm 3 mps 763 mmHg 79%
22:00 +1°C° 0 mm 3 mps 763 mmHg 83%
23:00 0°C° 0 mm 3 mps 763 mmHg 84%

Day after tomorrow, 15 April, Thursday

Time Temperature Precipitation Wind Pressure Humidity
00:00 0°C° 0 mm 3 mps 763 mmHg 85%
01:00 0°C° 0 mm 3 mps 763 mmHg 86%
02:00 0°C° 0 mm 3 mps 763 mmHg 86%
03:00 0°C° 0 mm 3 mps 763 mmHg 86%
04:00 0°C° 0 mm 3 mps 763 mmHg 87%
05:00 0°C° 0 mm 3 mps 763 mmHg 83%
06:00 0°C° 0 mm 4 mps 763 mmHg 80%
07:00 0°C° 0 mm 4 mps 764 mmHg 76%
08:00 +2°C° 0 mm 5 mps 764 mmHg 68%
09:00 +3°C° 0 mm 5 mps 764 mmHg 60%
10:00 +4°C° 0 mm 6 mps 764 mmHg 52%
11:00 +4°C° 0 mm 6 mps 763 mmHg 50%
12:00 +5°C° 0 mm 6 mps 763 mmHg 47%
13:00 +5°C° 0 mm 6 mps 763 mmHg 45%
14:00 +5°C° 0 mm 6 mps 763 mmHg 46%
15:00 +5°C° 0 mm 6 mps 763 mmHg 48%
16:00 +4°C° 0 mm 6 mps 763 mmHg 49%
17:00 +4°C° 0 mm 6 mps 763 mmHg 54%
18:00 +3°C° 0 mm 5 mps 763 mmHg 60%
19:00 +2°C° 0 mm 5 mps 763 mmHg 66%
20:00 +2°C° 0 mm 5 mps 762 mmHg 69%
21:00 +2°C° 0 mm 5 mps 762 mmHg 73%
22:00 +1°C° 0 mm 5 mps 762 mmHg 77%
23:00 +1°C° 0.1 mm 5 mps 762 mmHg 77%

16 April, Friday

Time Temperature Precipitation Wind Pressure Humidity
00:00 +1°C° 0.1 mm 5 mps 762 mmHg 78%
01:00 +1°C° 0.1 mm 5 mps 761 mmHg 78%
02:00 +1°C° 0.1 mm 5 mps 761 mmHg 79%
03:00 +1°C° 0.1 mm 5 mps 761 mmHg 81%
04:00 +1°C° 0.1 mm 5 mps 761 mmHg 83%
05:00 +1°C° 0 mm 5 mps 761 mmHg 82%
06:00 +1°C° 0 mm 5 mps 761 mmHg 82%
07:00 +1°C° 0 mm 4 mps 761 mmHg 81%
08:00 +3°C° 0 mm 5 mps 761 mmHg 73%
09:00 +5°C° 0 mm 5 mps 761 mmHg 65%
10:00 +7°C° 0 mm 5 mps 761 mmHg 57%
11:00 +7°C° 0 mm 5 mps 761 mmHg 58%
12:00 +8°C° 0 mm 5 mps 761 mmHg 59%
13:00 +8°C° 0 mm 5 mps 761 mmHg 60%
14:00 +8°C° 0.1 mm 4 mps 761 mmHg 64%
15:00 +7°C° 0.1 mm 4 mps 760 mmHg 67%
16:00 +7°C° 0.1 mm 4 mps 760 mmHg 71%
17:00 +6°C° 0 mm 4 mps 760 mmHg 76%
18:00 +5°C° 0 mm 4 mps 761 mmHg 81%
19:00 +4°C° 0 mm 3 mps 761 mmHg 86%
20:00 +4°C° 0 mm 3 mps 761 mmHg 87%
21:00 +4°C° 0 mm 3 mps 761 mmHg 87%
22:00 +4°C° 0 mm 3 mps 761 mmHg 87%
23:00 +4°C° 0 mm 3 mps 761 mmHg 88%

17 April, Saturday

Time Temperature Precipitation Wind Pressure Humidity
00:00 +4°C° 0 mm 2 mps 761 mmHg 89%
01:00 +4°C° 0 mm 2 mps 761 mmHg 90%
02:00 +4°C° 0 mm 2 mps 761 mmHg 91%
03:00 +4°C° 0 mm 2 mps 761 mmHg 91%
04:00 +4°C° 0 mm 2 mps 761 mmHg 91%
05:00 +4°C° 0 mm 2 mps 761 mmHg 92%
06:00 +5°C° 0 mm 2 mps 761 mmHg 92%
07:00 +5°C° 0 mm 2 mps 761 mmHg 92%
08:00 +5°C° 0 mm 2 mps 761 mmHg 91%
09:00 +5°C° 0 mm 3 mps 761 mmHg 90%
10:00 +7°C° 0 mm 3 mps 761 mmHg 89%
11:00 +8°C° 0 mm 3 mps 761 mmHg 85%
12:00 +9°C° 0 mm 3 mps 761 mmHg 82%
13:00 +10°C° 0 mm 3 mps 760 mmHg 78%
14:00 +10°C° 0 mm 3 mps 760 mmHg 78%
15:00 +10°C° 0 mm 3 mps 760 mmHg 79%
16:00 +11°C° 0 mm 3 mps 760 mmHg 79%
17:00 +10°C° 0.1 mm 3 mps 760 mmHg 82%
18:00 +9°C° 0.1 mm 3 mps 760 mmHg 85%
19:00 +8°C° 0.1 mm 4 mps 760 mmHg 88%
20:00 +8°C° 0 mm 3 mps 760 mmHg 90%
21:00 +7°C° 0 mm 3 mps 760 mmHg 92%
22:00 +7°C° 0 mm 3 mps 760 mmHg 95%
23:00 +7°C° 0 mm 3 mps 760 mmHg 95%

18 April, Sunday

Time Temperature Precipitation Wind Pressure Humidity
00:00 +7°C° 0 mm 2 mps 760 mmHg 95%
01:00 +7°C° 0 mm 2 mps 760 mmHg 95%
02:00 +7°C° 0.3 mm 2 mps 760 mmHg 96%
03:00 +7°C° 0.3 mm 2 mps 759 mmHg 97%
04:00 +7°C° 0.3 mm 2 mps 759 mmHg 98%
05:00 +8°C° 1.4 mm 1 mps 759 mmHg 98%
06:00 +8°C° 1.4 mm 1 mps 758 mmHg 98%
07:00 +8°C° 1.4 mm 1 mps 758 mmHg 98%
08:00 +8°C° 1.1 mm 2 mps 758 mmHg 97%
09:00 +8°C° 1.1 mm 2 mps 758 mmHg 96%
10:00 +8°C° 1.1 mm 3 mps 758 mmHg 96%
11:00 +8°C° 0.7 mm 3 mps 758 mmHg 95%
12:00 +8°C° 0.7 mm 3 mps 758 mmHg 94%
13:00 +8°C° 0.7 mm 3 mps 758 mmHg 93%
14:00 +8°C° 0.4 mm 3 mps 758 mmHg 93%
15:00 +6°C° 0.4 mm 4 mps 758 mmHg 92%
16:00 +6°C° 0.4 mm 4 mps 758 mmHg 92%
17:00 +7°C° 0.2 mm 3 mps 758 mmHg 91%
18:00 +7°C° 0.2 mm 2 mps 759 mmHg 91%
19:00 +7°C° 0.2 mm 2 mps 759 mmHg 90%
20:00 +7°C° 0 mm 2 mps 759 mmHg 91%
21:00 +6°C° 0 mm 2 mps 759 mmHg 92%
22:00 +6°C° 0 mm 2 mps 759 mmHg 92%
23:00 +5°C° 0 mm 2 mps 759 mmHg 93%
Show more

We Need Your Consent

Meteoprog and our Service Providers may store and access personal data such as cookies, device identifiers or other similar technologies on your device and process such data to personalise content and ads, as well as provide social media features and to analyse the traffic.

  • Store and/or access information on your device

    Cookies, device identifiers or other information can be stored or accessed on your device for the purposes indicated above.

  • Personalised ads and content, ad and content measurement, audience insights, and products development

    Ads and content can be personalised based on a profile. More data can be added to better personalise ads and content. Ad and content performance can be measured. Insights about the audience who saw the ads and content can be derived. Such data can be used to develop or improve user’s experience, systems and software.

By clicking ‘I Agree’ you will allow the use of indicated cookies, device identifiers, web beacons or other similar technologies. Your settings can be changed in the browser on your device.

For certain purposes, legitimate interests may be relied on, rather than consent. You can read more about this in our Privacy and Cookie Policy.